Change the Weather History Date:

Saturday, May 18, 2013

  Actual Average Record
Temperature  
Mean Temperature 82 °F -  
Max Temperature 100 °F 81 °F 100 °F (2013)
Min Temperature 64 °F 56 °F 42 °F (2002)
Cooling Degree Days 16    
Growing Degree Days 32 (Base 50)    
Moisture  
Dew Point 64 °F    
Average Humidity 75    
Maximum Humidity 94    
Minimum Humidity 30    
Precipitation  
Precipitation 2.00 in - - ()
Sea Level Pressure  
Sea Level Pressure 29.72 in    
Wind  
Wind Speed 14 mph (SSE)    
Max Wind Speed 33 mph    
Max Gust Speed 43 mph    
Visibility 6 miles    
Events Rain , Thunderstorm    
Averages and records for this station are not official NWS values.
T = Trace of Precipitation, MM = Missing Value Source: NWS Daily Summary

Daily Weather History Graph

Daily Weather History Graph

Search for Another Location

Airport or City:

Trip Planner

Search our weather history database for the weather conditions in past years. The results will help you decide how hot, cold, wet, or windy it might be!

Date:

Astronomy

May. 18, 2013 Rise Set
Actual Time 6:30 AM CDT 8:35 PM CDT
Civil Twilight 6:02 AM CDT 9:03 PM CDT
Nautical Twilight 5:27 AM CDT 9:38 PM CDT
Astronomical Twilight 4:50 AM CDT 10:15 PM CDT
Moon 1:55 PM CDT (5/18) 2:07 AM CDT (5/18)
Length of Visible Light 15h 01m
Length of Day
14h 05m
First Quarter, 55% of the Moon is Illuminated
May 18
First Quarter
May 24
Full
May 31
Last Quarter
Jun 8
New
Jun 16
First Quarter

Hourly Weather History & Observations

Time (CDT) Temp. Heat Index Dew Point Humidity Pressure Visibility Wind Dir Wind Speed Gust Speed Precip Events Conditions
12:53 AM 69.1 °F - 66.9 °F 93% 29.76 in 3.0 mi SE 9.2 mph - N/A   Clear
1:53 AM 71.1 °F - 69.1 °F 93% 29.75 in 5.0 mi SSE 6.9 mph - N/A   Clear
2:53 AM 73.0 °F - 70.0 °F 90% 29.73 in 6.0 mi SSE 11.5 mph - N/A   Clear
3:53 AM 72.0 °F - 70.0 °F 93% 29.73 in 5.0 mi SSE 11.5 mph - N/A   Clear
4:53 AM 72.0 °F - 70.0 °F 93% 29.72 in 5.0 mi South 12.7 mph - N/A   Clear
5:53 AM 73.0 °F - 70.0 °F 90% 29.72 in 5.0 mi South 12.7 mph - N/A   Clear
6:30 AM 73.4 °F - 69.8 °F 88% 29.78 in 5.0 mi South 12.7 mph - N/A Thunderstorm Clear
6:45 AM 71.6 °F - 69.8 °F 94% 29.79 in 5.0 mi South 16.1 mph - N/A   Clear
6:53 AM 73.0 °F - 70.0 °F 90% 29.74 in 5.0 mi South 12.7 mph - N/A   Clear
7:53 AM 72.0 °F - 70.0 °F 93% 29.77 in 3.0 mi SSW 8.1 mph - N/A   Clear
8:53 AM 73.0 °F - 70.0 °F 90% 29.78 in 3.0 mi South 5.8 mph - N/A   Partly Cloudy
9:53 AM 77.0 °F - 70.0 °F 79% 29.78 in 5.0 mi SSE 15.0 mph 20.7 mph N/A   Haze
10:53 AM 86.0 °F 90.7 °F 70.0 °F 59% 29.75 in 7.0 mi South 20.7 mph 26.5 mph N/A   Clear
11:53 AM 91.0 °F 95.6 °F 69.1 °F 48% 29.73 in 8.0 mi South 23.0 mph 28.8 mph N/A   Clear
12:53 PM 93.9 °F 97.5 °F 66.9 °F 41% 29.72 in 8.0 mi South 21.9 mph 27.6 mph N/A   Clear
1:53 PM 95.0 °F 98.5 °F 66.2 °F 39% 29.75 in 8.0 mi South 19.6 mph 29.9 mph N/A   Clear
2:53 PM 99.0 °F 100.5 °F 62.1 °F 30% 29.66 in 9.0 mi South 19.6 mph 28.8 mph N/A   Clear
3:53 PM 99.0 °F 100.5 °F 62.1 °F 30% 29.63 in 9.0 mi South 18.4 mph 31.1 mph N/A   Clear
4:51 PM 93.2 °F 92.6 °F 59.0 °F 32% 29.65 in 10.0 mi SSE 18.4 mph 29.9 mph N/A Thunderstorm Thunderstorm
4:53 PM 93.0 °F 92.0 °F 57.9 °F 31% 29.59 in 10.0 mi SSE 17.3 mph 25.3 mph N/A Thunderstorm Thunderstorm
5:53 PM 79.0 °F - 55.9 °F 45% 29.65 in 3.0 mi ESE 9.2 mph 36.8 mph 0.18 in Rain , Thunderstorm Heavy Thunderstorms and Rain
6:40 PM 66.2 °F - 62.6 °F 88% 29.74 in 1.8 mi ENE 27.6 mph 38.0 mph 0.40 in Rain , Thunderstorm Heavy Thunderstorms and Rain
6:53 PM 75.9 °F - 55.0 °F 48% 29.59 in 2.0 mi East 15.0 mph 31.1 mph 0.69 in Rain , Thunderstorm Heavy Thunderstorms and Rain
7:03 PM 73.4 °F - 55.4 °F 53% 29.69 in 8.0 mi SSE 9.2 mph 29.9 mph 0.01 in Rain , Thunderstorm Light Thunderstorms and Rain
7:24 PM 69.8 °F - 59.0 °F 68% 29.69 in 5.0 mi Variable 6.9 mph 26.5 mph 0.19 in Rain , Thunderstorm Heavy Thunderstorms and Rain
7:39 PM 66.2 °F - 60.8 °F 83% 29.81 in 1.8 mi North 8.1 mph 27.6 mph 0.46 in Rain , Thunderstorm Heavy Thunderstorms and Rain
7:42 PM 66.2 °F - 60.8 °F 83% 29.80 in 0.8 mi Variable 5.8 mph 27.6 mph 0.63 in Rain , Thunderstorm Heavy Thunderstorms and Rain
7:53 PM 64.0 °F - 62.1 °F 93% 29.70 in 1.2 mi East 18.4 mph 26.5 mph 0.83 in Rain , Thunderstorm Thunderstorms and Rain
7:56 PM 64.4 °F - 62.6 °F 94% 29.73 in 3.0 mi ENE 16.1 mph - 0.01 in Rain , Thunderstorm Light Thunderstorms and Rain
8:06 PM 66.2 °F - 64.4 °F 94% 29.70 in - ENE 24.2 mph 31.1 mph 0.03 in Rain , Thunderstorm Thunderstorms and Rain
8:53 PM 64.9 °F - 61.0 °F 87% 29.68 in 8.0 mi ESE 10.4 mph 26.5 mph 0.07 in Rain , Thunderstorm Light Rain
9:20 PM 66.2 °F - 62.6 °F 88% 29.75 in 4.0 mi SSE 33.4 mph 42.6 mph 0.15 in Rain , Thunderstorm Heavy Thunderstorms and Rain
9:25 PM 64.4 °F - 62.6 °F 94% 29.76 in 1.8 mi SSE 28.8 mph 42.6 mph 0.21 in Rain , Thunderstorm Heavy Thunderstorms and Rain
9:32 PM 64.4 °F - 62.6 °F 94% 29.70 in 3.0 mi ESE 25.3 mph 41.4 mph 0.22 in Rain , Thunderstorm Light Thunderstorms and Rain
9:53 PM 64.0 °F - 61.0 °F 90% 29.66 in 10.0 mi SE 15.0 mph - 0.23 in   Scattered Clouds
10:53 PM 64.4 °F - 60.8 °F 88% 29.69 in 10.0 mi East 10.4 mph - N/A   Clear
11:53 PM 66.0 °F - 63.0 °F 90% 29.65 in 9.0 mi East 12.7 mph 19.6 mph N/A   Clear